Weather History for Miles City, MT

Change the Weather History Date:

Saturday, October 6, 2012

  Actual Average Record
Temperature  
Mean Temperature 35 °F 51 °F  
Max Temperature 48 °F 64 °F 88 °F (1960)
Min Temperature 21 °F 37 °F 14 °F (1952)
Degree Days  
Heating Degree Days 30 15  
Month to date heating degree days 117 81  
Since 1 July heating degree days 210 317  
Cooling Degree Days 0 0  
Month to date cooling degree days 0 0  
Year to date cooling degree days 1107 728  
Moisture  
Dew Point 24 °F    
Average Humidity 67    
Maximum Humidity 100    
Minimum Humidity 34    
Precipitation  
Precipitation 0.00 in 0.03 in 0.81 in (1992)
Month to date precipitation 0.32 0.22  
Year to date precipitation 4.95 11.06  
Sea Level Pressure  
Sea Level Pressure 30.39 in    
Wind  
Wind Speed 7 mph (SSW)    
Max Wind Speed 14 mph    
Max Gust Speed 20 mph    
Visibility 7 miles    
Events Fog    
T = Trace of Precipitation, MM = Missing Value Source: NWS Daily Summary

Daily Weather History Graph

Daily Weather History Graph

Search for Another Location

Airport:

Trip Planner

Search our weather history database for the weather conditions in past years. The results will help you decide how hot, cold, wet, or windy it might be!

Date:

Astronomy

Oct. 06, 2012 Rise Set
Actual Time 7:09 AM MDT 6:32 PM MDT
Civil Twilight 6:39 AM MDT 7:02 PM MDT
Nautical Twilight 6:04 AM MDT 7:37 PM MDT
Astronomical Twilight 5:29 AM MDT 8:12 PM MDT
Moon 10:35 PM MDT (10/6) 1:21 PM MDT (10/6)
Length of Visible Light 12h 23m
Length of Day
11h 23m
Waning Gibbous, 65% of the Moon is Illuminated
Oct 6
Waning Gibbous
Oct 8
Last Quarter
Oct 15
New
Oct 21
First Quarter
Oct 29
Full

Hourly Weather History & Observations

Time (MDT) Temp. Windchill Dew Point Humidity Pressure Visibility Wind Dir Wind Speed Gust Speed Precip Events Conditions
12:53 AM 27.0 °F 18.0 °F 24.1 °F 89% 30.50 in 10.0 mi WNW 9.2 mph - N/A   Clear
1:53 AM 25.0 °F 18.1 °F 23.0 °F 92% 30.50 in 10.0 mi NW 5.8 mph - N/A   Clear
2:53 AM 25.0 °F - 21.9 °F 88% 30.50 in 10.0 mi Calm Calm - N/A   Partly Cloudy
3:53 AM 25.0 °F 19.3 °F 21.9 °F 88% 30.50 in 10.0 mi WSW 4.6 mph - N/A   Clear
4:04 AM 24.8 °F 17.9 °F 23.0 °F 93% 30.42 in 4.0 mi WSW 5.8 mph - N/A   Scattered Clouds
4:08 AM 24.8 °F 17.9 °F 23.0 °F 93% 30.42 in 1.5 mi WSW 5.8 mph - N/A   Mostly Cloudy
4:18 AM 26.6 °F 21.2 °F 24.8 °F 93% 30.41 in 3.0 mi WSW 4.6 mph - N/A   Mostly Cloudy
4:53 AM 26.1 °F 18.4 °F 25.0 °F 96% 30.48 in 8.0 mi SW 6.9 mph - N/A   Scattered Clouds
5:53 AM 21.9 °F 15.7 °F 21.0 °F 96% 30.49 in 2.5 mi SW 4.6 mph - N/A   Clear
6:02 AM 21.2 °F 14.9 °F 19.4 °F 93% 30.41 in 0.8 mi SSW 4.6 mph - N/A   Clear
6:13 AM 21.2 °F 16.4 °F 19.4 °F 93% 30.41 in 0.2 mi SSW 3.5 mph - N/A Fog Light Freezing Fog
6:31 AM 21.2 °F - 19.4 °F 93% 30.41 in 0.5 mi Calm Calm - N/A Fog Light Freezing Fog
6:42 AM 21.2 °F 14.9 °F 19.4 °F 93% 30.41 in 0.2 mi South 4.6 mph - N/A Fog Light Freezing Fog
6:53 AM 21.0 °F 14.6 °F 19.9 °F 96% 30.50 in 0.2 mi SSE 4.6 mph - N/A Fog Light Freezing Fog
7:46 AM 24.8 °F 20.5 °F 21.2 °F 86% 30.41 in 0.8 mi South 3.5 mph - N/A   Mist
7:53 AM 24.1 °F 19.7 °F 21.9 °F 91% 30.50 in 1.5 mi SSE 3.5 mph - N/A   Overcast
7:57 AM 24.8 °F 19.1 °F 21.2 °F 86% 30.41 in 3.0 mi SSE 4.6 mph - N/A   Mostly Cloudy
8:14 AM 24.8 °F 17.9 °F 23.0 °F 93% 30.41 in 10.0 mi SSE 5.8 mph - N/A   Scattered Clouds
8:53 AM 28.0 °F 22.8 °F 26.1 °F 92% 30.50 in 4.0 mi South 4.6 mph - N/A   Mostly Cloudy
9:04 AM 28.4 °F 24.6 °F 26.6 °F 93% 30.41 in 2.5 mi South 3.5 mph - N/A   Mostly Cloudy
9:14 AM 28.4 °F 23.3 °F 28.4 °F 100% 30.41 in 8.0 mi SSW 4.6 mph - N/A   Mostly Cloudy
9:26 AM 30.2 °F 25.4 °F 28.4 °F 93% 30.41 in 9.0 mi SSW 4.6 mph - N/A   Partly Cloudy
9:53 AM 32.0 °F 24.8 °F 30.0 °F 92% 30.49 in 10.0 mi SW 8.1 mph - N/A   Clear
10:53 AM 35.1 °F 28.6 °F 30.0 °F 82% 30.47 in 10.0 mi SW 8.1 mph - N/A   Clear
11:53 AM 41.0 °F 35.2 °F 30.0 °F 65% 30.44 in 10.0 mi WSW 9.2 mph - N/A   Clear
12:53 PM 44.1 °F 38.1 °F 27.0 °F 51% 30.40 in 10.0 mi SW 11.5 mph - N/A   Clear
1:53 PM 45.0 °F 41.2 °F 25.0 °F 46% 30.37 in 10.0 mi WSW 6.9 mph 18.4 mph N/A   Partly Cloudy
2:53 PM 46.0 °F 41.0 °F 23.0 °F 40% 30.34 in 10.0 mi West 10.4 mph 16.1 mph N/A   Clear
3:53 PM 46.9 °F - 24.1 °F 41% 30.31 in 10.0 mi West 11.5 mph - N/A   Clear
5:53 PM 46.0 °F 42.5 °F 21.0 °F 37% 30.26 in 10.0 mi SW 6.9 mph - N/A   Clear
6:53 PM 39.9 °F 35.8 °F 25.0 °F 55% 30.26 in 10.0 mi SW 5.8 mph - N/A   Clear
7:53 PM 39.0 °F 34.8 °F 24.1 °F 55% 30.25 in 10.0 mi South 5.8 mph - N/A   Clear
8:53 PM 35.1 °F 30.1 °F 25.0 °F 67% 30.22 in 10.0 mi South 5.8 mph - N/A   Clear
9:53 PM 32.0 °F 25.6 °F 24.1 °F 73% 30.21 in 10.0 mi SSE 6.9 mph - N/A   Clear
10:53 PM 30.9 °F 25.2 °F 24.1 °F 76% 30.18 in 10.0 mi SSE 5.8 mph - N/A   Clear
11:53 PM 32.0 °F - 23.0 °F 69% 30.15 in 10.0 mi Calm Calm - N/A   Clear